User: anonymous
Location: Unspecified
(0.0000°N, 0.0000°E)
Time: 09:22:05
(UTC+02:00)
Language:

GPS 2-12 Rocket1 - Orbit

View from above orbital plane
View from above orbital plane
View from above satellite
View from above satellite

Ground track
Ground track

The orbit data is extracted from the following two-line orbital elements,

1 21891U 92009B   14210.32559109  .00001276  00000-0  10884-3 0  2570
2 21891 019.9961 196.6182 0049357 045.6294 314.8154 14.80918894209693
Epoch (UTC): 29 July 2014 07:48:51
Eccentricity: 0.0049357
inclination: 19.9961°
perigee height: 592 km
apogee height: 661 km
right ascension of ascending node: 196.6182°
argument of perigee: 45.6294°
revolutions per day: 14.80918894
mean anomaly at epoch: 314.8154°
orbit number at epoch: 20969

The dashed part of the orbit path shows where the satellite is in the earth's shadow,  

DLR